User: anonymous   Login
Location: Unspecified
(0.0000°N, 0.0000°E)
Time: 06:47:02
(UTC+00:00)
Language:

CUTE-I - Orbit

View from above orbital plane
View from above orbital plane
View from above satellite
View from above satellite

Ground track
Ground track

The orbit data is extracted from the following two-line orbital elements,

1 27844U 03031E   19292.42042356  .00000035  00000-0  35371-4 0  9992
2 27844  98.6854 298.8045 0010533  41.0135 319.1833 14.22200028845735
Epoch (UTC): 19 October 2019 10:05:24
Eccentricity: 0.0010533
inclination: 98.6854°
perigee height: 810 km
apogee height: 825 km
right ascension of ascending node: 298.8045°
argument of perigee: 41.0135°
revolutions per day: 14.22200028
mean anomaly at epoch: 319.1833°
orbit number at epoch: 84573

The dashed part of the orbit path shows where the satellite is in the earth's shadow,  

DLR